| time (UTC) | temp F | wind direction | speed MPH | gust MPH | rain 1hr in | rain 24hr in | rain mn in | humidity % | barometer mb |
| 20260903202542 | 53 | 0 | 0.0 | 0.0 | 0.00 | 0.00 | 0.00 | 82 | 1002.6 |
| 20260903202042 | 53 | 0 | 0.0 | 0.0 | 0.00 | 0.00 | 0.00 | 82 | 1002.7 |
| 20260903201558 | 53 | 0 | 0.0 | 0.0 | 0.00 | 0.00 | 0.00 | 82 | 1002.6 |
| 20260903201047 | 53 | 0 | 0.0 | 0.0 | 0.00 | 0.00 | 0.00 | 82 | 1002.6 |
| 20260903200545 | 53 | 0 | 0.0 | 0.0 | 0.00 | 0.00 | 0.00 | 83 | 1002.7 |
| 20260903200056 | 53 | 0 | 0.0 | 0.0 | 0.00 | 0.00 | 0.00 | 83 | 1002.7 |
| 20260903195542 | 54 | 0 | 0.0 | 2.0 | 0.00 | 0.00 | 0.00 | 83 | 1002.7 |
| 20260903195042 | 54 | 0 | 0.0 | 5.0 | 0.00 | 0.00 | 0.00 | 83 | 1002.7 |
| 20260903194604 | 54 | 0 | 0.0 | 5.0 | 0.00 | 0.00 | 0.00 | 83 | 1002.7 |
| 20260903194042 | 54 | 11 | 0.0 | 4.0 | 0.00 | 0.00 | 0.00 | 83 | 1002.7 |
| 20260903193542 | 54 | 15 | 0.0 | 4.0 | 0.00 | 0.00 | 0.00 | 83 | 1002.7 |
| 20260903193101 | 54 | 0 | 0.0 | 7.0 | 0.00 | 0.00 | 0.00 | 83 | 1002.8 |
| 20260903192545 | 54 | 307 | 1.0 | 7.0 | 0.00 | 0.00 | 0.00 | 83 | 1002.8 |
| 20260903192042 | 54 | 282 | 2.0 | 7.0 | 0.00 | 0.00 | 0.00 | 83 | 1002.8 |
| 20260903191554 | 54 | 299 | 1.0 | 5.0 | 0.00 | 0.00 | 0.00 | 82 | 1002.7 |
| 20260903191045 | 55 | 304 | 1.0 | 5.0 | 0.00 | 0.00 | 0.00 | 82 | 1002.7 |
| 20260903190543 | 55 | 335 | 1.0 | 5.0 | 0.00 | 0.00 | 0.00 | 82 | 1002.7 |
| 20260903190054 | 55 | 304 | 2.0 | 7.0 | 0.00 | 0.00 | 0.00 | 82 | 1002.7 |
| 20260903185543 | 55 | 313 | 1.0 | 7.0 | 0.00 | 0.00 | 0.00 | 82 | 1002.6 |
| 20260903185042 | 55 | 321 | 2.0 | 7.0 | 0.00 | 0.00 | 0.00 | 82 | 1002.6 |
| 20260903184609 | 55 | 311 | 1.0 | 5.0 | 0.00 | 0.00 | 0.00 | 81 | 1002.6 |
| 20260903184043 | 56 | 333 | 1.0 | 4.0 | 0.00 | 0.00 | 0.00 | 81 | 1002.7 |
| 20260903183546 | 56 | 0 | 0.0 | 4.0 | 0.00 | 0.00 | 0.00 | 81 | 1002.6 |
| 20260903183057 | 56 | 296 | 1.0 | 4.0 | 0.00 | 0.00 | 0.00 | 81 | 1002.6 |
| 20260903182545 | 56 | 0 | 0.0 | 2.0 | 0.00 | 0.00 | 0.00 | 81 | 1002.6 |
| 20260903182045 | 56 | 332 | 0.0 | 3.0 | 0.00 | 0.00 | 0.00 | 81 | 1002.6 |
| 20260903181604 | 56 | 15 | 1.0 | 3.0 | 0.00 | 0.00 | 0.00 | 81 | 1002.8 |
| 20260903181042 | 56 | 0 | 0.0 | 2.0 | 0.00 | 0.00 | 0.00 | 81 | 1002.6 |
| 20260903180542 | 56 | 0 | 0.0 | 4.0 | 0.00 | 0.00 | 0.00 | 81 | 1002.5 |
| 20260903180109 | 56 | 0 | 0.0 | 8.0 | 0.00 | 0.00 | 0.00 | 81 | 1002.6 |
| 20260903175541 | 56 | 5 | 2.0 | 8.0 | 0.00 | 0.00 | 0.00 | 81 | 1002.6 |
| 20260903175042 | 57 | 277 | 3.0 | 8.0 | 0.00 | 0.00 | 0.00 | 81 | 1002.5 |
| 20260903174555 | 57 | 309 | 2.0 | 9.0 | 0.00 | 0.00 | 0.00 | 81 | 1002.5 |
| 20260903174044 | 57 | 306 | 3.0 | 9.0 | 0.00 | 0.00 | 0.00 | 81 | 1002.5 |
| 20260903173542 | 57 | 323 | 1.0 | 8.0 | 0.00 | 0.00 | 0.00 | 81 | 1002.5 |
| 20260903173109 | 57 | 302 | 3.0 | 8.0 | 0.00 | 0.00 | 0.00 | 80 | 1002.6 |
| 20260903172544 | 57 | 322 | 2.0 | 8.0 | 0.00 | 0.00 | 0.00 | 80 | 1002.5 |
| 20260903172041 | 57 | 306 | 1.0 | 8.0 | 0.00 | 0.00 | 0.00 | 80 | 1002.5 |
| 20260903171603 | 57 | 252 | 2.0 | 6.0 | 0.00 | 0.00 | 0.00 | 80 | 1002.5 |
| 20260903171043 | 57 | 325 | 2.0 | 6.0 | 0.00 | 0.00 | 0.00 | 80 | 1002.5 |
| 20260903170542 | 57 | 306 | 1.0 | 6.0 | 0.00 | 0.00 | 0.00 | 80 | 1002.4 |
| 20260903170058 | 57 | 298 | 2.0 | 8.0 | 0.00 | 0.00 | 0.00 | 80 | 1002.5 |
| 20260903165543 | 57 | 17 | 2.0 | 8.0 | 0.00 | 0.00 | 0.00 | 80 | 1002.5 |
| 20260903165042 | 57 | 346 | 1.0 | 5.0 | 0.00 | 0.00 | 0.00 | 79 | 1002.5 |
| 20260903164609 | 58 | 261 | 2.0 | 7.0 | 0.00 | 0.00 | 0.00 | 79 | 1002.4 |
| 20260903164043 | 58 | 296 | 2.0 | 7.0 | 0.00 | 0.00 | 0.00 | 79 | 1002.4 |
| 20260903163544 | 58 | 304 | 2.0 | 6.0 | 0.00 | 0.00 | 0.00 | 79 | 1002.4 |
| 20260903163137 | 58 | 296 | 1.0 | 6.0 | 0.00 | 0.00 | 0.00 | 79 | 1002.4 |
| 20260903162545 | 58 | 347 | 2.0 | 7.0 | 0.00 | 0.00 | 0.00 | 79 | 1002.4 |
| 20260903162041 | 58 | 352 | 2.0 | 8.0 | 0.00 | 0.00 | 0.00 | 79 | 1002.4 |
| 20260903161601 | 58 | 309 | 2.0 | 8.0 | 0.00 | 0.00 | 0.00 | 79 | 1002.3 |
| 20260903161042 | 58 | 352 | 2.0 | 7.0 | 0.00 | 0.00 | 0.00 | 79 | 1002.4 |
| 20260903160542 | 58 | 292 | 2.0 | 8.0 | 0.00 | 0.00 | 0.00 | 79 | 1002.3 |
| 20260903160100 | 58 | 311 | 2.0 | 8.0 | 0.00 | 0.00 | 0.00 | 79 | 1002.4 |
| 20260903155541 | 59 | 5 | 3.0 | 10.0 | 0.00 | 0.00 | 0.00 | 79 | 1002.4 |
| 20260903155045 | 59 | 277 | 3.0 | 10.0 | 0.00 | 0.00 | 0.00 | 79 | 1002.4 |
| 20260903154607 | 59 | 350 | 3.0 | 8.0 | 0.00 | 0.00 | 0.00 | 79 | 1002.5 |
| 20260903154043 | 59 | 294 | 3.0 | 8.0 | 0.00 | 0.00 | 0.00 | 78 | 1002.4 |
| 20260903153542 | 59 | 352 | 3.0 | 8.0 | 0.00 | 0.00 | 0.00 | 78 | 1002.5 |
| 20260903153106 | 59 | 271 | 2.0 | 9.0 | 0.00 | 0.00 | 0.00 | 78 | 1002.4 |
| 20260903152542 | 59 | 352 | 3.0 | 9.0 | 0.00 | 0.00 | 0.00 | 78 | 1002.4 |
| 20260903152045 | 59 | 346 | 4.0 | 8.0 | 0.00 | 0.00 | 0.00 | 78 | 1002.4 |
| 20260903151604 | 59 | 360 | 2.0 | 13.0 | 0.00 | 0.00 | 0.00 | 78 | 1002.5 |
| 20260903151042 | 59 | 342 | 2.0 | 13.0 | 0.00 | 0.00 | 0.00 | 78 | 1002.5 |
| 20260903150541 | 59 | 261 | 3.0 | 8.0 | 0.00 | 0.00 | 0.00 | 78 | 1002.5 |
| 20260903150105 | 59 | 271 | 3.0 | 12.0 | 0.00 | 0.00 | 0.00 | 77 | 1002.5 |
| 20260903145543 | 59 | 269 | 4.0 | 12.0 | 0.00 | 0.00 | 0.00 | 77 | 1002.5 |
| 20260903145044 | 59 | 299 | 2.0 | 9.0 | 0.00 | 0.00 | 0.00 | 77 | 1002.4 |
| 20260903144559 | 59 | 309 | 2.0 | 9.0 | 0.00 | 0.00 | 0.00 | 77 | 1002.5 |
| 20260903144043 | 60 | 221 | 3.0 | 11.0 | 0.00 | 0.00 | 0.00 | 76 | 1002.5 |
| 20260903143542 | 60 | 23 | 3.0 | 11.0 | 0.00 | 0.00 | 0.00 | 76 | 1002.5 |
| 20260903143057 | 60 | 329 | 3.0 | 11.0 | 0.00 | 0.00 | 0.00 | 76 | 1002.6 |
| 20260903142544 | 60 | 5 | 2.0 | 8.0 | 0.00 | 0.00 | 0.00 | 76 | 1002.6 |
| 20260903142042 | 60 | 344 | 3.0 | 8.0 | 0.00 | 0.00 | 0.00 | 76 | 1002.6 |
| 20260903141606 | 60 | 303 | 3.0 | 8.0 | 0.00 | 0.00 | 0.00 | 76 | 1002.5 |
| 20260903141042 | 60 | 349 | 2.0 | 8.0 | 0.00 | 0.00 | 0.00 | 75 | 1002.5 |
| 20260903140542 | 60 | 323 | 1.0 | 9.0 | 0.00 | 0.00 | 0.00 | 75 | 1002.5 |
| 20260903140105 | 60 | 329 | 2.0 | 9.0 | 0.00 | 0.00 | 0.00 | 75 | 1002.5 |
| 20260903135547 | 60 | 269 | 2.0 | 8.0 | 0.00 | 0.00 | 0.00 | 74 | 1002.5 |
| 20260903135042 | 60 | 306 | 2.0 | 8.0 | 0.00 | 0.00 | 0.00 | 74 | 1002.5 |
| 20260903134628 | 60 | 259 | 3.0 | 8.0 | 0.00 | 0.00 | 0.00 | 74 | 1002.5 |
| 20260903134046 | 60 | 28 | 1.0 | 8.0 | 0.00 | 0.00 | 0.00 | 74 | 1002.6 |
| 20260903133542 | 60 | 0 | 3.0 | 9.0 | 0.00 | 0.00 | 0.00 | 74 | 1002.5 |
| 20260903133120 | 60 | 360 | 2.0 | 9.0 | 0.00 | 0.00 | 0.00 | 74 | 1002.5 |
| 20260903132545 | 60 | 295 | 3.0 | 8.0 | 0.00 | 0.00 | 0.00 | 74 | 1002.4 |
| 20260903132043 | 60 | 317 | 3.0 | 8.0 | 0.00 | 0.00 | 0.00 | 74 | 1002.4 |
| 20260903131608 | 60 | 269 | 2.0 | 11.0 | 0.00 | 0.00 | 0.00 | 74 | 1002.5 |
| 20260903131042 | 60 | 314 | 3.0 | 11.0 | 0.00 | 0.00 | 0.00 | 74 | 1002.5 |
| 20260903130543 | 60 | 336 | 5.0 | 11.0 | 0.00 | 0.00 | 0.00 | 74 | 1002.5 |
| 20260903130110 | 60 | 336 | 2.0 | 8.0 | 0.00 | 0.00 | 0.00 | 74 | 1002.4 |
| 20260903125544 | 60 | 300 | 1.0 | 9.0 | 0.00 | 0.00 | 0.00 | 75 | 1002.4 |
| 20260903125042 | 60 | 298 | 4.0 | 9.0 | 0.00 | 0.00 | 0.00 | 74 | 1002.4 |
| 20260903124610 | 60 | 342 | 3.0 | 9.0 | 0.00 | 0.00 | 0.00 | 73 | 1002.4 |
| 20260903124042 | 60 | 131 | 3.0 | 9.0 | 0.00 | 0.00 | 0.00 | 73 | 1002.4 |
| 20260903123544 | 60 | 352 | 2.0 | 8.0 | 0.00 | 0.00 | 0.00 | 73 | 1002.4 |
| 20260903123057 | 60 | 345 | 2.0 | 8.0 | 0.00 | 0.00 | 0.00 | 72 | 1002.4 |
| 20260903122542 | 60 | 346 | 2.0 | 9.0 | 0.00 | 0.00 | 0.00 | 72 | 1002.5 |
| 20260903122042 | 60 | 236 | 2.0 | 9.0 | 0.00 | 0.00 | 0.00 | 73 | 1002.4 |
| 20260903121557 | 61 | 286 | 2.0 | 4.0 | 0.00 | 0.00 | 0.00 | 72 | 1002.4 |
| 20260903121041 | 61 | 239 | 1.0 | 4.0 | 0.00 | 0.00 | 0.00 | 72 | 1002.3 |
| 20260903120543 | 61 | 211 | 1.0 | 4.0 | 0.00 | 0.00 | 0.00 | 72 | 1002.3 |
| 20260903120133 | 61 | 23 | 1.0 | 4.0 | 0.00 | 0.00 | 0.00 | 73 | 1002.3 |
| 20260903115542 | 61 | 0 | 0.0 | 5.0 | 0.00 | 0.00 | 0.00 | 73 | 1002.3 |
| 20260903115043 | 61 | 0 | 2.0 | 5.0 | 0.00 | 0.00 | 0.00 | 73 | 1002.3 |
| 20260903114608 | 61 | 315 | 0.0 | 4.0 | 0.00 | 0.00 | 0.00 | 74 | 1002.2 |
| 20260903114042 | 60 | 345 | 0.0 | 2.0 | 0.00 | 0.00 | 0.00 | 74 | 1002.3 |
| 20260903113542 | 61 | 0 | 0.0 | 0.0 | 0.00 | 0.00 | 0.00 | 73 | 1002.3 |
| 20260903113058 | 61 | 0 | 0.0 | 0.0 | 0.00 | 0.00 | 0.00 | 73 | 1002.3 |
| 20260903112542 | 61 | 0 | 0.0 | 1.0 | 0.00 | 0.00 | 0.00 | 73 | 1002.3 |
| 20260903112043 | 61 | 0 | 0.0 | 2.0 | 0.00 | 0.00 | 0.00 | 73 | 1002.3 |
| 20260903111602 | 61 | 0 | 0.0 | 2.0 | 0.00 | 0.00 | 0.00 | 73 | 1002.3 |
| 20260903111044 | 61 | 0 | 0.0 | 3.0 | 0.00 | 0.00 | 0.00 | 72 | 1002.4 |
| 20260903110542 | 61 | 0 | 1.0 | 3.0 | 0.00 | 0.00 | 0.00 | 72 | 1002.3 |
| 20260903110105 | 62 | 96 | 1.0 | 2.0 | 0.00 | 0.00 | 0.00 | 72 | 1002.4 |
| 20260903105542 | 62 | 0 | 0.0 | 2.0 | 0.00 | 0.00 | 0.00 | 72 | 1002.3 |
| 20260903105043 | 62 | 0 | 0.0 | 3.0 | 0.00 | 0.00 | 0.00 | 73 | 1002.3 |
| 20260903104556 | 62 | 96 | 0.0 | 3.0 | 0.00 | 0.00 | 0.00 | 72 | 1002.3 |
| 20260903104046 | 62 | 108 | 0.0 | 3.0 | 0.00 | 0.00 | 0.00 | 72 | 1002.2 |
| 20260903103543 | 63 | 108 | 1.0 | 4.0 | 0.00 | 0.00 | 0.00 | 71 | 1002.3 |
| 20260903103104 | 63 | 107 | 1.0 | 4.0 | 0.00 | 0.00 | 0.00 | 72 | 1002.2 |
| 20260903102543 | 63 | 118 | 0.0 | 4.0 | 0.00 | 0.00 | 0.00 | 72 | 1002.2 |
| 20260903102044 | 63 | 92 | 0.0 | 4.0 | 0.00 | 0.00 | 0.00 | 73 | 1002.1 |
| 20260903101552 | 63 | 0 | 0.0 | 4.0 | 0.00 | 0.00 | 0.00 | 73 | 1002.0 |
| 20260903101041 | 63 | 0 | 1.0 | 4.0 | 0.00 | 0.00 | 0.00 | 74 | 1002.0 |
| 20260903100542 | 63 | 9 | 1.0 | 4.0 | 0.00 | 0.00 | 0.00 | 75 | 1002.0 |
| 20260903100105 | 63 | 0 | 0.0 | 3.0 | 0.00 | 0.00 | 0.00 | 75 | 1002.0 |
| 20260903095542 | 62 | 0 | 1.0 | 3.0 | 0.00 | 0.00 | 0.00 | 76 | 1001.9 |
| 20260903095042 | 61 | 113 | 0.0 | 0.0 | 0.00 | 0.00 | 0.00 | 78 | 1001.8 |
| 20260903094558 | 60 | 0 | 0.0 | 0.0 | 0.00 | 0.00 | 0.00 | 79 | 1001.7 |
| 20260903094043 | 60 | 0 | 0.0 | 0.0 | 0.00 | 0.00 | 0.00 | 79 | 1001.7 |
| 20260903093543 | 59 | 0 | 0.0 | 3.0 | 0.00 | 0.00 | 0.00 | 79 | 1001.7 |
| 20260903093107 | 59 | 0 | 0.0 | 4.0 | 0.00 | 0.00 | 0.00 | 80 | 1001.8 |
| 20260903092544 | 58 | 124 | 1.0 | 4.0 | 0.00 | 0.00 | 0.00 | 80 | 1001.7 |
| 20260903092043 | 57 | 126 | 0.0 | 1.0 | 0.00 | 0.00 | 0.00 | 81 | 1001.8 |
| 20260903091601 | 57 | 0 | 0.0 | 0.0 | 0.00 | 0.00 | 0.00 | 81 | 1001.8 |
| 20260903091044 | 56 | 0 | 0.0 | 0.0 | 0.00 | 0.00 | 0.00 | 81 | 1001.8 |
| 20260903090541 | 56 | 0 | 0.0 | 0.0 | 0.00 | 0.00 | 0.00 | 82 | 1001.9 |
| 20260903085542 | 56 | 0 | 0.0 | 0.0 | 0.00 | 0.00 | 0.00 | 84 | 1001.9 |
| 20260903085042 | 55 | 0 | 0.0 | 0.0 | 0.00 | 0.00 | 0.00 | 84 | 1002.0 |
| 20260903084558 | 55 | 0 | 0.0 | 0.0 | 0.00 | 0.00 | 0.00 | 85 | 1001.9 |
| 20260903084042 | 54 | 0 | 0.0 | 0.0 | 0.00 | 0.00 | 0.00 | 86 | 1001.9 |
| 20260903083545 | 54 | 0 | 0.0 | 0.0 | 0.00 | 0.00 | 0.00 | 86 | 1002.1 |
| 20260903083056 | 54 | 0 | 0.0 | 0.0 | 0.00 | 0.00 | 0.00 | 87 | 1001.9 |
| 20260903082541 | 53 | 0 | 0.0 | 0.0 | 0.00 | 0.00 | 0.00 | 87 | 1002.1 |
| 20260903082041 | 53 | 0 | 0.0 | 0.0 | 0.00 | 0.00 | 0.00 | 87 | 1002.1 |
| 20260903081553 | 53 | 0 | 0.0 | 0.0 | 0.00 | 0.00 | 0.00 | 87 | 1002.2 |
| 20260903081042 | 53 | 0 | 0.0 | 0.0 | 0.00 | 0.00 | 0.00 | 87 | 1002.2 |
| 20260903080541 | 53 | 0 | 0.0 | 0.0 | 0.00 | 0.00 | 0.00 | 87 | 1002.1 |
| 20260903080103 | 52 | 0 | 0.0 | 0.0 | 0.00 | 0.00 | 0.00 | 88 | 1002.1 |
| 20260903075542 | 52 | 0 | 0.0 | 0.0 | 0.00 | 0.00 | 0.00 | 88 | 1002.1 |
| 20260903075042 | 52 | 0 | 0.0 | 0.0 | 0.00 | 0.00 | 0.00 | 89 | 1002.1 |
| 20260903074627 | 52 | 0 | 0.0 | 0.0 | 0.00 | 0.00 | 0.00 | 89 | 1002.0 |
| 20260903074042 | 52 | 0 | 0.0 | 0.0 | 0.00 | 0.00 | 0.00 | 89 | 1002.1 |
| 20260903073542 | 52 | 0 | 0.0 | 0.0 | 0.00 | 0.00 | 0.00 | 89 | 1002.0 |
| 20260903073059 | 51 | 0 | 0.0 | 0.0 | 0.00 | 0.00 | 0.00 | 89 | 1002.1 |
| 20260903072542 | 51 | 0 | 0.0 | 0.0 | 0.00 | 0.00 | 0.00 | 90 | 1002.0 |
| 20260903072042 | 51 | 0 | 0.0 | 0.0 | 0.00 | 0.00 | 0.00 | 90 | 1002.0 |
| 20260903071607 | 51 | 0 | 0.0 | 0.0 | 0.00 | 0.00 | 0.00 | 90 | 1001.9 |
| 20260903071042 | 51 | 0 | 0.0 | 0.0 | 0.00 | 0.00 | 0.00 | 90 | 1001.9 |
| 20260903070543 | 51 | 0 | 0.0 | 0.0 | 0.00 | 0.00 | 0.00 | 90 | 1001.9 |
| 20260903070115 | 50 | 0 | 0.0 | 0.0 | 0.00 | 0.00 | 0.00 | 90 | 1001.9 |
| 20260903065545 | 50 | 0 | 0.0 | 0.0 | 0.00 | 0.00 | 0.00 | 90 | 1001.9 |
| 20260903065043 | 50 | 0 | 0.0 | 0.0 | 0.00 | 0.00 | 0.00 | 90 | 1001.9 |
| 20260903064555 | 50 | 0 | 0.0 | 0.0 | 0.00 | 0.00 | 0.00 | 89 | 1001.9 |
| 20260903064044 | 50 | 0 | 0.0 | 0.0 | 0.00 | 0.00 | 0.00 | 89 | 1001.8 |
| 20260903063544 | 50 | 0 | 0.0 | 0.0 | 0.00 | 0.00 | 0.00 | 89 | 1001.8 |
| 20260903063105 | 50 | 0 | 0.0 | 0.0 | 0.00 | 0.00 | 0.00 | 89 | 1001.8 |
| 20260903062544 | 49 | 0 | 0.0 | 0.0 | 0.00 | 0.00 | 0.00 | 89 | 1001.8 |
| 20260903062044 | 49 | 0 | 0.0 | 0.0 | 0.00 | 0.00 | 0.00 | 89 | 1001.8 |
| 20260903061611 | 49 | 0 | 0.0 | 0.0 | 0.00 | 0.00 | 0.00 | 89 | 1001.8 |
| 20260903061043 | 49 | 0 | 0.0 | 0.0 | 0.00 | 0.00 | 0.00 | 89 | 1001.8 |
| 20260903060543 | 49 | 0 | 0.0 | 0.0 | 0.00 | 0.00 | 0.00 | 89 | 1001.6 |
| 20260903060100 | 48 | 0 | 0.0 | 0.0 | 0.00 | 0.00 | 0.00 | 89 | 1001.7 |
| 20260903055544 | 48 | 0 | 0.0 | 0.0 | 0.00 | 0.00 | 0.00 | 89 | 1001.6 |
| 20260903055043 | 48 | 0 | 0.0 | 0.0 | 0.00 | 0.00 | 0.00 | 89 | 1001.6 |
| 20260903054603 | 48 | 0 | 0.0 | 0.0 | 0.00 | 0.00 | 0.00 | 89 | 1001.6 |
| 20260903054044 | 48 | 0 | 0.0 | 0.0 | 0.00 | 0.00 | 0.00 | 89 | 1001.7 |
| 20260903053542 | 47 | 0 | 0.0 | 0.0 | 0.00 | 0.00 | 0.00 | 89 | 1001.6 |
| 20260903053101 | 47 | 0 | 0.0 | 0.0 | 0.00 | 0.00 | 0.00 | 89 | 1001.6 |
| 20260903052541 | 47 | 0 | 0.0 | 0.0 | 0.00 | 0.00 | 0.00 | 89 | 1001.7 |
| 20260903052045 | 47 | 0 | 0.0 | 0.0 | 0.00 | 0.00 | 0.00 | 88 | 1001.6 |
| 20260903051603 | 47 | 0 | 0.0 | 0.0 | 0.00 | 0.00 | 0.00 | 88 | 1001.6 |
| 20260903051042 | 47 | 0 | 0.0 | 0.0 | 0.00 | 0.00 | 0.00 | 88 | 1001.6 |
| 20260903050542 | 46 | 0 | 0.0 | 0.0 | 0.00 | 0.00 | 0.00 | 87 | 1001.5 |
| 20260903045541 | 46 | 0 | 0.0 | 0.0 | 0.00 | 0.00 | 0.00 | 87 | 1001.5 |
| 20260903045042 | 46 | 0 | 0.0 | 0.0 | 0.00 | 0.00 | 0.00 | 87 | 1001.5 |
| 20260903044558 | 46 | 0 | 0.0 | 0.0 | 0.00 | 0.00 | 0.00 | 87 | 1001.6 |
| 20260903044042 | 46 | 0 | 0.0 | 0.0 | 0.00 | 0.00 | 0.00 | 87 | 1001.5 |
| 20260903043543 | 46 | 0 | 0.0 | 0.0 | 0.00 | 0.00 | 0.00 | 87 | 1001.5 |
| 20260903043103 | 46 | 0 | 0.0 | 0.0 | 0.00 | 0.00 | 0.00 | 87 | 1001.5 |
| 20260903042542 | 46 | 0 | 0.0 | 0.0 | 0.00 | 0.00 | 0.00 | 87 | 1001.5 |
| 20260903042043 | 46 | 0 | 0.0 | 0.0 | 0.00 | 0.00 | 0.00 | 87 | 1001.5 |
| 20260903041611 | 46 | 0 | 0.0 | 0.0 | 0.00 | 0.00 | 0.00 | 86 | 1001.6 |
| 20260903041042 | 46 | 0 | 0.0 | 0.0 | 0.00 | 0.00 | 0.00 | 86 | 1001.6 |
| 20260903040546 | 46 | 0 | 0.0 | 0.0 | 0.00 | 0.00 | 0.00 | 87 | 1001.5 |
| 20260903040109 | 46 | 0 | 0.0 | 0.0 | 0.00 | 0.00 | 0.00 | 87 | 1001.5 |
| 20260903035544 | 46 | 0 | 0.0 | 0.0 | 0.00 | 0.00 | 0.00 | 87 | 1001.6 |
| 20260903035042 | 46 | 0 | 0.0 | 0.0 | 0.00 | 0.00 | 0.00 | 87 | 1001.5 |
| 20260903034600 | 46 | 0 | 0.0 | 0.0 | 0.00 | 0.00 | 0.00 | 87 | 1001.5 |
| 20260903034043 | 46 | 0 | 0.0 | 0.0 | 0.00 | 0.00 | 0.00 | 87 | 1001.5 |
| 20260903033542 | 46 | 0 | 0.0 | 0.0 | 0.00 | 0.00 | 0.00 | 87 | 1001.4 |
| 20260903033101 | 46 | 0 | 0.0 | 0.0 | 0.00 | 0.00 | 0.00 | 87 | 1001.3 |
| 20260903032543 | 46 | 0 | 0.0 | 0.0 | 0.00 | 0.00 | 0.00 | 87 | 1001.4 |
| 20260903032042 | 46 | 0 | 0.0 | 0.0 | 0.00 | 0.00 | 0.00 | 87 | 1001.4 |
| 20260903031611 | 46 | 0 | 0.0 | 0.0 | 0.00 | 0.00 | 0.00 | 87 | 1001.3 |
| 20260903031042 | 46 | 0 | 0.0 | 0.0 | 0.00 | 0.00 | 0.00 | 86 | 1001.4 |
| 20260903030542 | 46 | 0 | 0.0 | 0.0 | 0.00 | 0.00 | 0.00 | 86 | 1001.4 |
| 20260903025543 | 45 | 0 | 0.0 | 0.0 | 0.00 | 0.00 | 0.00 | 85 | 1001.6 |
| 20260903025041 | 45 | 0 | 0.0 | 0.0 | 0.00 | 0.00 | 0.00 | 85 | 1001.6 |
| 20260903024604 | 45 | 0 | 0.0 | 0.0 | 0.00 | 0.00 | 0.00 | 85 | 1001.5 |
| 20260903024419 | 45 | 0 | 0.0 | 0.0 | 0.00 | 0.00 | 0.00 | 85 | 1001.5 |
| 20260903020545 | 46 | 0 | 0.0 | 0.0 | 0.00 | 0.00 | 0.00 | 85 | 1001.7 |
| 20260903020058 | 46 | 0 | 0.0 | 0.0 | 0.00 | 0.00 | 0.00 | 85 | 1001.7 |
| 20260903015541 | 46 | 0 | 0.0 | 0.0 | 0.00 | 0.00 | 0.00 | 85 | 1001.6 |
| 20260903015040 | 46 | 0 | 0.0 | 0.0 | 0.00 | 0.00 | 0.00 | 85 | 1001.7 |
| 20260903014613 | 45 | 0 | 0.0 | 0.0 | 0.00 | 0.00 | 0.00 | 85 | 1001.6 |
| 20260903014044 | 46 | 0 | 0.0 | 0.0 | 0.00 | 0.00 | 0.00 | 85 | 1001.6 |
| 20260903013544 | 46 | 0 | 0.0 | 0.0 | 0.00 | 0.00 | 0.00 | 85 | 1001.6 |
| 20260903013102 | 46 | 0 | 0.0 | 0.0 | 0.00 | 0.00 | 0.00 | 85 | 1001.6 |
| 20260903012543 | 46 | 0 | 0.0 | 0.0 | 0.00 | 0.00 | 0.00 | 85 | 1001.6 |
| 20260903012043 | 46 | 0 | 0.0 | 0.0 | 0.00 | 0.00 | 0.00 | 85 | 1001.6 |
| 20260903011617 | 46 | 0 | 0.0 | 0.0 | 0.00 | 0.00 | 0.00 | 85 | 1001.7 |
| 20260903011043 | 46 | 0 | 0.0 | 0.0 | 0.00 | 0.00 | 0.00 | 85 | 1001.7 |
| 20260903010544 | 46 | 0 | 0.0 | 0.0 | 0.00 | 0.00 | 0.00 | 85 | 1001.7 |
| 20260903010108 | 46 | 0 | 0.0 | 2.0 | 0.00 | 0.00 | 0.00 | 84 | 1001.7 |
| 20260903005543 | 46 | 0 | 0.0 | 2.0 | 0.00 | 0.00 | 0.00 | 84 | 1001.8 |
| 20260903005043 | 46 | 0 | 0.0 | 0.0 | 0.00 | 0.00 | 0.00 | 84 | 1001.8 |
| 20260903004608 | 46 | 0 | 0.0 | 3.0 | 0.00 | 0.00 | 0.00 | 85 | 1001.8 |
| 20260903004043 | 46 | 0 | 0.0 | 3.0 | 0.00 | 0.00 | 0.00 | 85 | 1001.8 |
| 20260903003544 | 46 | 346 | 2.0 | 3.0 | 0.00 | 0.00 | 0.00 | 84 | 1001.8 |
| 20260903003125 | 46 | 0 | 0.0 | 0.0 | 0.00 | 0.00 | 0.00 | 84 | 1001.8 |
| 20260903002543 | 46 | 0 | 0.0 | 0.0 | 0.00 | 0.00 | 0.00 | 84 | 1001.9 |
| 20260903002047 | 46 | 0 | 0.0 | 0.0 | 0.00 | 0.00 | 0.00 | 84 | 1001.9 |
| 20260903001603 | 46 | 0 | 0.0 | 0.0 | 0.00 | 0.00 | 0.00 | 84 | 1001.9 |
| 20260903001045 | 46 | 0 | 0.0 | 0.0 | 0.00 | 0.00 | 0.00 | 84 | 1001.9 |
| 20260903000544 | 46 | 0 | 0.0 | 0.0 | 0.00 | 0.00 | 0.00 | 84 | 1001.9 |
| 20260902235544 | 46 | 0 | 0.0 | 0.0 | 0.00 | 0.00 | 0.00 | 83 | 1002.0 |
| 20260902235046 | 45 | 0 | 0.0 | 0.0 | 0.00 | 0.00 | 0.00 | 83 | 1002.0 |
| 20260902234554 | 46 | 0 | 0.0 | 0.0 | 0.00 | 0.00 | 0.00 | 83 | 1002.1 |
| 20260902234043 | 46 | 0 | 0.0 | 0.0 | 0.00 | 0.00 | 0.00 | 83 | 1001.9 |
| 20260902233548 | 46 | 0 | 0.0 | 0.0 | 0.00 | 0.00 | 0.00 | 83 | 1001.9 |
| 20260902233057 | 46 | 0 | 0.0 | 0.0 | 0.00 | 0.00 | 0.00 | 83 | 1002.0 |
| 20260902232543 | 46 | 0 | 0.0 | 0.0 | 0.00 | 0.00 | 0.00 | 83 | 1002.0 |
| 20260902232046 | 46 | 0 | 0.0 | 0.0 | 0.00 | 0.00 | 0.00 | 82 | 1002.0 |
| 20260902231556 | 46 | 0 | 0.0 | 0.0 | 0.00 | 0.00 | 0.00 | 82 | 1002.0 |
| 20260902231042 | 46 | 0 | 0.0 | 0.0 | 0.00 | 0.00 | 0.00 | 82 | 1002.1 |
| 20260902230542 | 46 | 0 | 0.0 | 0.0 | 0.00 | 0.00 | 0.00 | 82 | 1002.1 |
| 20260902230059 | 46 | 0 | 0.0 | 0.0 | 0.00 | 0.00 | 0.00 | 82 | 1002.1 |
| 20260902225544 | 46 | 0 | 0.0 | 0.0 | 0.00 | 0.00 | 0.00 | 82 | 1002.2 |
| 20260902225047 | 46 | 0 | 0.0 | 0.0 | 0.00 | 0.00 | 0.00 | 82 | 1002.2 |
| 20260902224625 | 46 | 0 | 0.0 | 0.0 | 0.00 | 0.00 | 0.00 | 82 | 1002.2 |
| 20260902224043 | 46 | 0 | 0.0 | 0.0 | 0.00 | 0.00 | 0.00 | 82 | 1002.1 |
| 20260902223543 | 46 | 0 | 0.0 | 0.0 | 0.00 | 0.00 | 0.00 | 82 | 1002.2 |
| 20260902223100 | 46 | 0 | 0.0 | 0.0 | 0.00 | 0.00 | 0.00 | 82 | 1002.1 |
| 20260902222543 | 46 | 0 | 0.0 | 0.0 | 0.00 | 0.00 | 0.00 | 81 | 1002.0 |
| 20260902222044 | 47 | 0 | 0.0 | 0.0 | 0.00 | 0.00 | 0.00 | 81 | 1002.1 |
| 20260902221605 | 47 | 0 | 0.0 | 0.0 | 0.00 | 0.00 | 0.00 | 81 | 1002.1 |
| 20260902221043 | 47 | 0 | 0.0 | 0.0 | 0.00 | 0.00 | 0.00 | 81 | 1002.1 |
| 20260902220544 | 47 | 0 | 0.0 | 0.0 | 0.00 | 0.00 | 0.00 | 81 | 1002.1 |
| 20260902220101 | 47 | 0 | 0.0 | 0.0 | 0.00 | 0.00 | 0.00 | 82 | 1002.1 |
| 20260902215543 | 47 | 0 | 0.0 | 0.0 | 0.00 | 0.00 | 0.00 | 81 | 1002.1 |
| 20260902215044 | 47 | 0 | 0.0 | 0.0 | 0.00 | 0.00 | 0.00 | 81 | 1002.1 |
| 20260902214556 | 47 | 0 | 0.0 | 0.0 | 0.00 | 0.00 | 0.00 | 80 | 1002.1 |
| 20260902214047 | 47 | 0 | 0.0 | 0.0 | 0.00 | 0.00 | 0.00 | 80 | 1002.1 |
| 20260902213546 | 48 | 0 | 0.0 | 0.0 | 0.00 | 0.00 | 0.00 | 80 | 1002.0 |
| 20260902213106 | 48 | 0 | 0.0 | 0.0 | 0.00 | 0.00 | 0.00 | 80 | 1002.0 |
| 20260902212543 | 48 | 0 | 0.0 | 0.0 | 0.00 | 0.00 | 0.00 | 80 | 1002.1 |
| 20260902212043 | 48 | 0 | 0.0 | 0.0 | 0.00 | 0.00 | 0.00 | 80 | 1002.1 |
| 20260902211558 | 48 | 0 | 0.0 | 0.0 | 0.00 | 0.00 | 0.00 | 80 | 1002.1 |
| 20260902211043 | 48 | 0 | 0.0 | 0.0 | 0.00 | 0.00 | 0.00 | 80 | 1002.1 |
| 20260902210546 | 48 | 0 | 0.0 | 0.0 | 0.00 | 0.00 | 0.00 | 80 | 1002.2 |
| 20260902210058 | 48 | 0 | 0.0 | 0.0 | 0.00 | 0.00 | 0.00 | 80 | 1002.2 |
| 20260902205543 | 49 | 0 | 0.0 | 0.0 | 0.00 | 0.00 | 0.00 | 79 | 1002.2 |
| 20260902205044 | 49 | 0 | 0.0 | 0.0 | 0.00 | 0.00 | 0.00 | 79 | 1002.3 |
| 20260902204554 | 49 | 0 | 0.0 | 0.0 | 0.00 | 0.00 | 0.00 | 80 | 1002.3 |
| 20260902204045 | 49 | 0 | 0.0 | 0.0 | 0.00 | 0.00 | 0.00 | 79 | 1002.3 |
| 20260902203543 | 49 | 0 | 0.0 | 0.0 | 0.00 | 0.00 | 0.00 | 79 | 1002.3 |
| 20260902203115 | 50 | 0 | 0.0 | 0.0 | 0.00 | 0.00 | 0.00 | 79 | 1002.4 |